Terug naar catalogus

STARLINK-32415

ActiefCommunicatieVLEO
NORAD 61861·PAYLOAD·🇺🇸 United States

Gelanceerd Nov 7, 2024 vanaf Cape Canaveral Space Force Station

Loading…

Volgende Passages (komende 24 uur)

TLE

VersSource: CelesTrak SupGP

Epoch: Sep 15, 2026, 03:39 UTC

1 61861C 24202S   26258.15256944 -.00045231  00000+0 -16375-2 0  2589
2 61861  43.0028 248.1204 0001186 286.3709  20.8058 15.27616843    10

Volg STARLINK-32415 in realtime met AllMySat

Download on the App Store